Location: Le Domaine
(47.0333°N, 76.5361°W)
Time: 22:02:15
(UTC-05:00)

S-56A Canister/Altair - Pass Details

Date: 27 November 2019
Orbit: 633 x 2499 km, 38.9° (Epoch: 10 December)

Event Time Altitude Azimuth Distance (km) Brightness Sun altitude
Rises 20:09:00 0° 276° (W) 4,746 12.5 -38.2°
Reaches altitude 10° 20:13:44 10° 260° (W) 3,363 11.4 -39.0°
Maximum altitude 20:18:39 18° 222° (SW) 2,420 10.2 -39.8°
Enters shadow 20:19:14 17° 216° (SW) 2,384 10.2 -39.9°
Drops below altitude 10° 20:22:38 10° 182° (S) 2,609 - -40.5°
Sets 20:25:41 0° 162° (SSE) 3,316 - -41.0°
